GVAC

Sal/Amílcar Cabral International Airport

Airport
ICAO code
GVAC
IATA Code
SID
Summary
ICAO Region
AFI
ICAO Territory
Location

Espargos, Sal Island, Ilhas de Barlavento

Serving
Espargos
Elevation
177 ft
Coordinates
16° 44' 30" N , 22° 56' 54" W
KCC
Metar
GVAC 142200Z 03014KT 9999 BKN014 23/18 Q1015 NOSIG

Description

International airport serving Sal, Cape Verde islands.

Climatology

Hot, semi-arid/Steppe climate (Köppen climate classification BSh) - hot, sometimes extremely hot summers and mild to warm winters, with low annual precipitation.

Runways

Designator Length Width Surface Rops
7/25 1500 45 ASP Yes/Yes
1/19 3272 45 ASP Yes/Yes

Airport map

Aerial View

SKYbrary Partners:

Safety knowledge contributed by: